Retour au catalogue

THORAD DELTA 1 DEB

ActifLEO
NORAD 8435·DEBRIS·🇺🇸 United States

Lancé Nov 15, 1974 depuis Vandenberg Space Force Base

Loading…

Prochains Passages (prochaines 24 heures)

TLE

FraisSource: Space-Track

Époque: Sep 14, 2026, 01:50 UTC

1 08435U 74089CL  26257.07666935 -.00000032  00000-0  72817-4 0  9997
2 08435 101.5482 114.4308 0165809  11.2426 143.4747 12.20832682310085

Suivez THORAD DELTA 1 DEB en temps réel avec AllMySat

Download on the App Store